Location: Unspecified
(0.0000°N, 0.0000°E)
Time: 20:32:52
(UTC+00:00)

ARIANE 2 DEB - Pass Details

Date: 07 March 2026
Orbit: 598 x 35366 km, 8.4° (Epoch: 18 September)

Event Time Altitude Azimuth Distance (km) Brightness Sun altitude
Exits shadow 01:47:13 58° 54° (NE) 5,069 ? -65.4°
Maximum altitude 09:19:03 62° 98° (E) 26,372 ? 46.7°
Drops below altitude 10° 11:08:41 10° 101° (E) 10,302 ? 73.6°
Sets 11:13:33 0° 100° (E) 9,968 ? 74.7°
